Regional Weather Roundup
Issued by NWS Sioux Falls, SD

Home | Current Version | Previous Version | Text Only | Print | Product List | Glossary Off
Versions: 1 2 3 4 5 6 7 8 9 10 11 12 13 14 15 16 17 18 19 20 21 22 23 24 25 26 27 28 29 30 31 32 33 34 35 36 37 38 39 40 41 42 43 44 45 46 47 48 49 50

000
ASUS43 KFSD 310202
RWRFSD

WEATHER ROUNDUP FOR SE SOUTH DAKOTA/SW MINNESOTA/NW IOWA
NATIONAL WEATHER SERVICE SIOUX FALLS SD
900 PM CDT THU OCT 30 2014

NOTE: "FAIR" INDICATES FEW OR NO CLOUDS BELOW 12,000 FEET WITH NO
SIGNIFICANT WEATHER AND OR OBSTRUCTIONS TO VISIBILITY.


SDZ038>040-050-052>070-310300-
SOUTHEAST SOUTH DAKOTA

CITY           SKY/WX    TMP DP  RH WIND       PRES   REMARKS
CHAMBERLAIN    CLOUDY    37  29  73 N14G22    30.47R
HURON          CLOUDY    36  26  67 N16G24    30.47R
MADISON        CLOUDY    34  28  80 N23       30.40R WCI  22
MITCHELL       CLOUDY    38  29  70 N18G25    30.46R
SIOUX FALLS    CLOUDY    37  28  70 N17G28    30.39R
WINNER         FAIR      37  29  72 NE16      30.45R
YANKTON        CLOUDY    41  30  65 N21G26    30.41R
$$

MNZ071-072-080-081-089-090-097-098-310300-
SOUTHWEST MINNESOTA

CITY           SKY/WX    TMP DP  RH WIND       PRES   REMARKS
FAIRMONT       CLOUDY    41  28  60 NW26G32   30.28R
JACKSON        CLOUDY    37  30  75 NW24G33   30.30R
LUVERNE        CLOUDY    37  30  75 N22G32    30.38R
MARSHALL       CLOUDY    34  19  55 N24G39    30.39R WCI  21
MONTEVIDEO     CLOUDY    36  27  69 N22G29    30.40R
PIPESTONE      CLOUDY    34  25  69 N18G29    30.37R WCI  23
REDWOOD FALLS  CLOUDY    38  26  62 N14G29    30.35R
TRACY          CLOUDY    35  27  73 N21G30    30.38R WCI  24
WINDOM         CLOUDY    36  28  75 NW26G32   30.33R
WORTHINGTON    CLOUDY    34  27  75 N28G38    30.35R WCI  20
$$

IAZ001>003-012>014-020>022-031-032-NEZ013-014-SDZ071-310300-
NORTHWEST IOWA

CITY           SKY/WX    TMP DP  RH WIND       PRES   REMARKS
CHEROKEE       CLOUDY    40  33  75 N24G33    30.32R
DENISON        CLOUDY    46  41  81 N18G32    30.24R
ESTHERVILLE    CLOUDY    39  30  70 N23G36    30.29R
LE MARS        CLOUDY    41  32  70 N21G30    30.36R
ORANGE CITY    CLOUDY    41  30  65 N17G24    30.34R
SHELDON        CLOUDY    37  30  75 N25G35    30.34R
SIOUX CITY     CLOUDY    44  34  67 N26       30.34R
SPENCER        PTCLDY    38  30  73 N30G37    30.31R
STORM LAKE     CLOUDY    41  34  75 N22G36    30.29R
$$

ABBREVIATIONS USED IN REMARKS
   TC - TEMPERATURE IN CELSIUS
  WCI - WIND CHILL INDEX
   HX - HEAT INDEX
  VSB - VISIBILITY




USA.gov is the U.S. government's official web portal to all federal, state and local government web resources and services.